| time (UTC) | temp C | wind direction | speed KPH | gust KPH | rain 1hr cm | rain 24hr cm | rain mn cm | humidity % | barometer mb |
| 20260510020034 | 16 | 155 | 6.4 | 16.1 | 0.00 | 0.00 | 0.00 | 66 | 1009.8 |
| 20260510015810 | 16 | 156 | 12.9 | 16.1 | 0.00 | 0.00 | 0.00 | 66 | 1010.2 |
| 20260510015610 | 16 | 178 | 8.0 | 14.5 | 0.00 | 0.00 | 0.00 | 66 | 1009.8 |
| 20260510015210 | 16 | 174 | 8.0 | 12.9 | 0.00 | 0.00 | 0.00 | 65 | 1010.2 |
| 20260510014615 | 16 | 140 | 14.5 | 17.7 | 0.00 | 0.00 | 0.00 | 66 | 1009.8 |
| 20260510014410 | 16 | 175 | 9.7 | 17.7 | 0.00 | 0.00 | 0.00 | 66 | 1009.8 |
| 20260510014210 | 16 | 172 | 12.9 | 17.7 | 0.00 | 0.00 | 0.00 | 65 | 1010.2 |
| 20260510014016 | 16 | 167 | 9.7 | 14.5 | 0.00 | 0.00 | 0.00 | 66 | 1010.2 |
| 20260510013610 | 16 | 173 | 9.7 | 14.5 | 0.00 | 0.00 | 0.00 | 65 | 1010.2 |
| 20260510013410 | 16 | 171 | 8.0 | 12.9 | 0.00 | 0.00 | 0.00 | 65 | 1010.2 |
| 20260510013024 | 16 | 176 | 9.7 | 14.5 | 0.00 | 0.00 | 0.00 | 65 | 1010.2 |
| 20260510012810 | 16 | 165 | 9.7 | 12.9 | 0.00 | 0.00 | 0.00 | 65 | 1010.2 |
| 20260510012410 | 16 | 176 | 12.9 | 14.5 | 0.00 | 0.00 | 0.00 | 65 | 1010.2 |
| 20260510012210 | 16 | 162 | 11.3 | 12.9 | 0.00 | 0.00 | 0.00 | 65 | 1010.2 |
| 20260510012018 | 16 | 173 | 8.0 | 16.1 | 0.00 | 0.00 | 0.00 | 65 | 1010.2 |
| 20260510011811 | 16 | 160 | 9.7 | 14.5 | 0.00 | 0.00 | 0.00 | 65 | 1010.2 |
| 20260510011410 | 16 | 166 | 9.7 | 12.9 | 0.00 | 0.00 | 0.00 | 65 | 1010.2 |
| 20260510011211 | 16 | 176 | 8.0 | 9.7 | 0.00 | 0.00 | 0.00 | 65 | 1010.2 |
| 20260510011017 | 16 | 171 | 3.2 | 14.5 | 0.00 | 0.00 | 0.00 | 65 | 1010.2 |
| 20260510010810 | 16 | 161 | 12.9 | 12.9 | 0.00 | 0.00 | 0.00 | 65 | 1010.5 |
| 20260510010610 | 16 | 161 | 9.7 | 14.5 | 0.00 | 0.00 | 0.00 | 64 | 1010.2 |
| 20260510010410 | 16 | 164 | 9.7 | 11.3 | 0.00 | 0.00 | 0.00 | 65 | 1010.5 |
| 20260510010210 | 16 | 168 | 8.0 | 12.9 | 0.00 | 0.00 | 0.00 | 64 | 1010.5 |
| 20260510010033 | 16 | 177 | 9.7 | 12.9 | 0.00 | 0.00 | 0.00 | 65 | 1010.5 |
| 20260510005810 | 16 | 166 | 9.7 | 14.5 | 0.00 | 0.00 | 0.00 | 64 | 1010.5 |
| 20260510005610 | 16 | 158 | 11.3 | 14.5 | 0.00 | 0.00 | 0.00 | 64 | 1010.5 |
| 20260510005411 | 16 | 176 | 9.7 | 11.3 | 0.00 | 0.00 | 0.00 | 64 | 1010.5 |
| 20260510005210 | 16 | 153 | 9.7 | 14.5 | 0.00 | 0.00 | 0.00 | 64 | 1010.5 |
| 20260510005016 | 16 | 153 | 9.7 | 12.9 | 0.00 | 0.00 | 0.00 | 64 | 1010.5 |
| 20260510004810 | 16 | 178 | 6.4 | 16.1 | 0.00 | 0.00 | 0.00 | 64 | 1010.8 |
| 20260510004610 | 16 | 162 | 9.7 | 11.3 | 0.00 | 0.00 | 0.00 | 64 | 1010.5 |
| 20260510004410 | 16 | 175 | 9.7 | 12.9 | 0.00 | 0.00 | 0.00 | 64 | 1010.5 |
| 20260510004209 | 16 | 178 | 9.7 | 12.9 | 0.00 | 0.00 | 0.00 | 64 | 1010.8 |
| 20260510004017 | 16 | 180 | 6.4 | 12.9 | 0.00 | 0.00 | 0.00 | 64 | 1010.5 |
| 20260510003610 | 16 | 175 | 9.7 | 12.9 | 0.00 | 0.00 | 0.00 | 64 | 1010.8 |
| 20260510003409 | 16 | 170 | 9.7 | 14.5 | 0.00 | 0.00 | 0.00 | 64 | 1010.8 |
| 20260510003210 | 16 | 163 | 6.4 | 12.9 | 0.00 | 0.00 | 0.00 | 64 | 1010.8 |
| 20260510003025 | 16 | 164 | 8.0 | 12.9 | 0.00 | 0.00 | 0.00 | 64 | 1010.8 |
| 20260510002810 | 16 | 180 | 9.7 | 12.9 | 0.00 | 0.00 | 0.00 | 64 | 1010.8 |
| 20260510002610 | 16 | 164 | 12.9 | 12.9 | 0.00 | 0.00 | 0.00 | 64 | 1010.8 |
| 20260510002410 | 16 | 171 | 6.4 | 11.3 | 0.00 | 0.00 | 0.00 | 64 | 1010.8 |
| 20260510002210 | 16 | 177 | 8.0 | 9.7 | 0.00 | 0.00 | 0.00 | 64 | 1010.8 |
| 20260510002017 | 16 | 180 | 6.4 | 12.9 | 0.00 | 0.00 | 0.00 | 63 | 1010.8 |
| 20260510001811 | 16 | 177 | 11.3 | 12.9 | 0.00 | 0.00 | 0.00 | 64 | 1010.8 |
| 20260510001610 | 16 | 166 | 9.7 | 12.9 | 0.00 | 0.00 | 0.00 | 64 | 1011.2 |
| 20260510001410 | 16 | 171 | 12.9 | 14.5 | 0.00 | 0.00 | 0.00 | 64 | 1011.2 |
| 20260510001209 | 16 | 155 | 11.3 | 12.9 | 0.00 | 0.00 | 0.00 | 63 | 1011.2 |
| 20260510001017 | 16 | 172 | 9.7 | 12.9 | 0.00 | 0.00 | 0.00 | 64 | 1011.2 |
| 20260510000610 | 16 | 167 | 9.7 | 12.9 | 0.00 | 0.00 | 0.00 | 64 | 1011.2 |
| 20260510000411 | 16 | 163 | 12.9 | 14.5 | 0.00 | 0.00 | 0.00 | 64 | 1011.2 |
| 20260510000038 | 17 | 156 | 11.3 | 14.5 | 0.00 | 0.00 | 0.00 | 64 | 1011.2 |
| 20260509235810 | 17 | 176 | 9.7 | 12.9 | 0.00 | 0.00 | 0.00 | 64 | 1011.2 |
| 20260509235610 | 17 | 169 | 9.7 | 11.3 | 0.00 | 0.00 | 0.00 | 64 | 1011.5 |
| 20260509235410 | 17 | 176 | 9.7 | 11.3 | 0.00 | 0.00 | 0.00 | 64 | 1011.2 |
| 20260509235210 | 17 | 159 | 9.7 | 14.5 | 0.00 | 0.00 | 0.00 | 64 | 1011.2 |
| 20260509235016 | 17 | 177 | 9.7 | 12.9 | 0.00 | 0.00 | 0.00 | 64 | 1011.2 |
| 20260509234810 | 17 | 164 | 11.3 | 12.9 | 0.00 | 0.00 | 0.00 | 64 | 1011.5 |
| 20260509234609 | 17 | 161 | 6.4 | 16.1 | 0.00 | 0.00 | 0.00 | 63 | 1011.2 |
| 20260509234410 | 17 | 158 | 6.4 | 16.1 | 0.00 | 0.00 | 0.00 | 64 | 1011.2 |
| 20260509234210 | 17 | 172 | 9.7 | 12.9 | 0.00 | 0.00 | 0.00 | 63 | 1011.2 |
| 20260509234017 | 17 | 165 | 11.3 | 12.9 | 0.00 | 0.00 | 0.00 | 64 | 1011.2 |
| 20260509233809 | 17 | 165 | 9.7 | 11.3 | 0.00 | 0.00 | 0.00 | 64 | 1011.2 |
| 20260509233610 | 17 | 175 | 9.7 | 11.3 | 0.00 | 0.00 | 0.00 | 63 | 1011.2 |
| 20260509233410 | 17 | 171 | 9.7 | 11.3 | 0.00 | 0.00 | 0.00 | 63 | 1011.2 |
| 20260509233025 | 17 | 160 | 9.7 | 11.3 | 0.00 | 0.00 | 0.00 | 64 | 1011.2 |
| 20260509232810 | 17 | 173 | 9.7 | 12.9 | 0.00 | 0.00 | 0.00 | 63 | 1011.5 |
| 20260509232610 | 17 | 161 | 11.3 | 12.9 | 0.00 | 0.00 | 0.00 | 63 | 1011.2 |
| 20260509232016 | 17 | 166 | 9.7 | 12.9 | 0.00 | 0.00 | 0.00 | 63 | 1011.5 |
| 20260509231810 | 17 | 147 | 11.3 | 16.1 | 0.00 | 0.00 | 0.00 | 63 | 1011.5 |
| 20260509231610 | 17 | 172 | 12.9 | 14.5 | 0.00 | 0.00 | 0.00 | 64 | 1011.5 |
| 20260509231410 | 17 | 142 | 12.9 | 12.9 | 0.00 | 0.00 | 0.00 | 64 | 1011.5 |
| 20260509231210 | 17 | 173 | 9.7 | 12.9 | 0.00 | 0.00 | 0.00 | 64 | 1011.5 |
| 20260509230810 | 17 | 173 | 9.7 | 12.9 | 0.00 | 0.00 | 0.00 | 64 | 1011.2 |
| 20260509230610 | 17 | 174 | 9.7 | 14.5 | 0.00 | 0.00 | 0.00 | 64 | 1011.5 |
| 20260509230411 | 17 | 167 | 11.3 | 14.5 | 0.00 | 0.00 | 0.00 | 64 | 1011.5 |
| 20260509230210 | 17 | 166 | 9.7 | 12.9 | 0.00 | 0.00 | 0.00 | 64 | 1011.9 |
| 20260509230034 | 17 | 170 | 11.3 | 11.3 | 0.00 | 0.00 | 0.00 | 64 | 1011.5 |
| 20260509225810 | 17 | 173 | 9.7 | 11.3 | 0.00 | 0.00 | 0.00 | 64 | 1011.5 |
| 20260509225410 | 17 | 156 | 12.9 | 14.5 | 0.00 | 0.00 | 0.00 | 64 | 1011.5 |
| 20260509225210 | 17 | 165 | 11.3 | 12.9 | 0.00 | 0.00 | 0.00 | 65 | 1011.5 |
| 20260509225016 | 17 | 172 | 9.7 | 16.1 | 0.00 | 0.00 | 0.00 | 64 | 1011.5 |
| 20260509224810 | 17 | 170 | 9.7 | 12.9 | 0.00 | 0.00 | 0.00 | 65 | 1011.5 |
| 20260509224610 | 17 | 170 | 8.0 | 12.9 | 0.00 | 0.00 | 0.00 | 65 | 1011.5 |
| 20260509224410 | 17 | 173 | 9.7 | 16.1 | 0.00 | 0.00 | 0.00 | 65 | 1011.5 |
| 20260509224212 | 17 | 167 | 9.7 | 14.5 | 0.00 | 0.00 | 0.00 | 65 | 1011.5 |
| 20260509224016 | 17 | 157 | 11.3 | 12.9 | 0.00 | 0.00 | 0.00 | 65 | 1011.5 |
| 20260509223810 | 17 | 167 | 9.7 | 12.9 | 0.00 | 0.00 | 0.00 | 65 | 1011.9 |
| 20260509223610 | 17 | 154 | 11.3 | 12.9 | 0.00 | 0.00 | 0.00 | 66 | 1011.5 |
| 20260509223410 | 17 | 174 | 9.7 | 9.7 | 0.00 | 0.00 | 0.00 | 66 | 1011.5 |
| 20260509223210 | 17 | 174 | 8.0 | 12.9 | 0.00 | 0.00 | 0.00 | 65 | 1011.5 |
| 20260509223025 | 17 | 176 | 9.7 | 12.9 | 0.00 | 0.00 | 0.00 | 66 | 1011.5 |
| 20260509222810 | 17 | 168 | 9.7 | 11.3 | 0.00 | 0.00 | 0.00 | 66 | 1011.5 |
| 20260509222611 | 17 | 173 | 9.7 | 11.3 | 0.00 | 0.00 | 0.00 | 66 | 1011.5 |
| 20260509222409 | 17 | 179 | 6.4 | 12.9 | 0.00 | 0.00 | 0.00 | 65 | 1011.5 |
| 20260509222210 | 17 | 147 | 11.3 | 14.5 | 0.00 | 0.00 | 0.00 | 66 | 1011.5 |
| 20260509222016 | 17 | 161 | 6.4 | 12.9 | 0.00 | 0.00 | 0.00 | 66 | 1011.5 |
| 20260509221810 | 17 | 145 | 6.4 | 12.9 | 0.00 | 0.00 | 0.00 | 67 | 1011.5 |
| 20260509221610 | 17 | 174 | 9.7 | 11.3 | 0.00 | 0.00 | 0.00 | 67 | 1011.5 |
| 20260509221410 | 17 | 174 | 11.3 | 12.9 | 0.00 | 0.00 | 0.00 | 67 | 1011.5 |
| 20260509221210 | 17 | 160 | 11.3 | 14.5 | 0.00 | 0.00 | 0.00 | 67 | 1011.5 |
| 20260509221017 | 17 | 176 | 8.0 | 14.5 | 0.00 | 0.00 | 0.00 | 67 | 1011.5 |
| 20260509220810 | 16 | 163 | 11.3 | 14.5 | 0.00 | 0.00 | 0.00 | 68 | 1011.5 |
| 20260509220610 | 16 | 171 | 8.0 | 12.9 | 0.00 | 0.00 | 0.00 | 68 | 1011.5 |
| 20260509220411 | 16 | 173 | 11.3 | 14.5 | 0.00 | 0.00 | 0.00 | 68 | 1011.5 |
| 20260509220210 | 16 | 147 | 14.5 | 14.5 | 0.00 | 0.00 | 0.00 | 68 | 1011.5 |
| 20260509220034 | 16 | 176 | 8.0 | 12.9 | 0.00 | 0.00 | 0.00 | 69 | 1011.5 |
| 20260509215810 | 16 | 173 | 9.7 | 12.9 | 0.00 | 0.00 | 0.00 | 69 | 1011.5 |
| 20260509215610 | 16 | 173 | 8.0 | 12.9 | 0.00 | 0.00 | 0.00 | 69 | 1011.5 |
| 20260509215410 | 16 | 170 | 8.0 | 12.9 | 0.00 | 0.00 | 0.00 | 69 | 1011.5 |
| 20260509215210 | 16 | 174 | 9.7 | 11.3 | 0.00 | 0.00 | 0.00 | 70 | 1011.5 |
| 20260509214810 | 16 | 157 | 6.4 | 12.9 | 0.00 | 0.00 | 0.00 | 70 | 1011.5 |
| 20260509214610 | 16 | 171 | 8.0 | 11.3 | 0.00 | 0.00 | 0.00 | 70 | 1011.5 |
| 20260509214410 | 16 | 168 | 8.0 | 11.3 | 0.00 | 0.00 | 0.00 | 70 | 1011.5 |
| 20260509214210 | 16 | 174 | 9.7 | 11.3 | 0.00 | 0.00 | 0.00 | 70 | 1011.5 |
| 20260509213810 | 16 | 177 | 11.3 | 12.9 | 0.00 | 0.00 | 0.00 | 70 | 1011.5 |
| 20260509213610 | 16 | 173 | 11.3 | 12.9 | 0.00 | 0.00 | 0.00 | 71 | 1011.5 |
| 20260509212810 | 16 | 175 | 9.7 | 11.3 | 0.00 | 0.00 | 0.00 | 71 | 1011.5 |
| 20260509212615 | 16 | 173 | 9.7 | 12.9 | 0.00 | 0.00 | 0.00 | 71 | 1011.5 |
| 20260509212410 | 16 | 173 | 9.7 | 12.9 | 0.00 | 0.00 | 0.00 | 71 | 1011.9 |
| 20260509212210 | 16 | 171 | 9.7 | 12.9 | 0.00 | 0.00 | 0.00 | 71 | 1011.9 |
| 20260509212017 | 16 | 178 | 11.3 | 12.9 | 0.00 | 0.00 | 0.00 | 71 | 1011.5 |
| 20260509211810 | 16 | 174 | 11.3 | 12.9 | 0.00 | 0.00 | 0.00 | 71 | 1011.5 |
| 20260509211610 | 16 | 177 | 11.3 | 12.9 | 0.00 | 0.00 | 0.00 | 71 | 1011.5 |
| 20260509211410 | 16 | 180 | 12.9 | 12.9 | 0.00 | 0.00 | 0.00 | 71 | 1011.5 |
| 20260509211210 | 16 | 173 | 9.7 | 12.9 | 0.00 | 0.00 | 0.00 | 71 | 1011.5 |
| 20260509211016 | 16 | 170 | 11.3 | 12.9 | 0.00 | 0.00 | 0.00 | 71 | 1011.5 |
| 20260509210810 | 16 | 174 | 11.3 | 12.9 | 0.00 | 0.00 | 0.00 | 71 | 1011.5 |
| 20260509210610 | 16 | 172 | 12.9 | 12.9 | 0.00 | 0.00 | 0.00 | 71 | 1011.2 |
| 20260509210410 | 16 | 171 | 9.7 | 12.9 | 0.00 | 0.00 | 0.00 | 71 | 1011.5 |
| 20260509210210 | 17 | 174 | 12.9 | 12.9 | 0.00 | 0.00 | 0.00 | 71 | 1011.5 |
| 20260509210034 | 17 | 175 | 11.3 | 12.9 | 0.00 | 0.00 | 0.00 | 72 | 1011.5 |
| 20260509205810 | 17 | 173 | 11.3 | 12.9 | 0.00 | 0.00 | 0.00 | 71 | 1011.2 |
| 20260509205610 | 17 | 169 | 12.9 | 12.9 | 0.00 | 0.00 | 0.00 | 71 | 1011.5 |
| 20260509205211 | 17 | 174 | 9.7 | 12.9 | 0.00 | 0.00 | 0.00 | 71 | 1011.5 |
| 20260509205016 | 17 | 177 | 12.9 | 12.9 | 0.00 | 0.00 | 0.00 | 71 | 1011.5 |
| 20260509204811 | 17 | 176 | 11.3 | 12.9 | 0.00 | 0.00 | 0.00 | 71 | 1011.5 |
| 20260509204610 | 17 | 176 | 11.3 | 12.9 | 0.00 | 0.00 | 0.00 | 71 | 1011.5 |
| 20260509204410 | 17 | 175 | 12.9 | 12.9 | 0.00 | 0.00 | 0.00 | 71 | 1011.2 |
| 20260509204210 | 17 | 173 | 11.3 | 12.9 | 0.00 | 0.00 | 0.00 | 71 | 1011.9 |
| 20260509203815 | 17 | 173 | 11.3 | 12.9 | 0.00 | 0.00 | 0.00 | 71 | 1011.2 |
| 20260509203610 | 17 | 171 | 8.0 | 12.9 | 0.00 | 0.00 | 0.00 | 70 | 1011.5 |
| 20260509203410 | 17 | 173 | 9.7 | 12.9 | 0.00 | 0.00 | 0.00 | 70 | 1011.5 |
| 20260509203211 | 17 | 176 | 9.7 | 14.5 | 0.00 | 0.00 | 0.00 | 70 | 1011.5 |
| 20260509203025 | 17 | 177 | 9.7 | 11.3 | 0.00 | 0.00 | 0.00 | 70 | 1011.5 |
| 20260509202016 | 17 | 177 | 9.7 | 11.3 | 0.00 | 0.00 | 0.00 | 69 | 1011.5 |
| 20260509201811 | 18 | 173 | 9.7 | 11.3 | 0.00 | 0.00 | 0.00 | 68 | 1011.5 |
| 20260509201610 | 18 | 175 | 11.3 | 11.3 | 0.00 | 0.00 | 0.00 | 68 | 1011.5 |
| 20260509201411 | 18 | 178 | 11.3 | 11.3 | 0.00 | 0.00 | 0.00 | 67 | 1011.5 |
| 20260509201211 | 18 | 176 | 9.7 | 11.3 | 0.00 | 0.00 | 0.00 | 67 | 1011.5 |
| 20260509201017 | 18 | 178 | 9.7 | 11.3 | 0.00 | 0.00 | 0.00 | 67 | 1011.5 |
| 20260509200810 | 18 | 175 | 11.3 | 11.3 | 0.00 | 0.00 | 0.00 | 67 | 1011.5 |
| 20260509200610 | 18 | 174 | 11.3 | 11.3 | 0.00 | 0.00 | 0.00 | 66 | 1011.2 |
| 20260509200411 | 18 | 175 | 9.7 | 11.3 | 0.00 | 0.00 | 0.00 | 66 | 1011.5 |
| 20260509200033 | 18 | 175 | 9.7 | 11.3 | 0.00 | 0.00 | 0.00 | 66 | 1011.5 |
| 20260509195810 | 18 | 174 | 9.7 | 11.3 | 0.00 | 0.00 | 0.00 | 65 | 1011.2 |
| 20260509195609 | 18 | 176 | 9.7 | 11.3 | 0.00 | 0.00 | 0.00 | 65 | 1011.5 |
| 20260509195410 | 18 | 178 | 9.7 | 11.3 | 0.00 | 0.00 | 0.00 | 65 | 1011.5 |
| 20260509195209 | 18 | 176 | 9.7 | 11.3 | 0.00 | 0.00 | 0.00 | 64 | 1011.2 |
| 20260509195015 | 19 | 176 | 11.3 | 12.9 | 0.00 | 0.00 | 0.00 | 64 | 1011.2 |
| 20260509194810 | 19 | 177 | 11.3 | 11.3 | 0.00 | 0.00 | 0.00 | 64 | 1011.2 |
| 20260509194610 | 19 | 179 | 9.7 | 11.3 | 0.00 | 0.00 | 0.00 | 63 | 1011.2 |
| 20260509194410 | 19 | 179 | 9.7 | 11.3 | 0.00 | 0.00 | 0.00 | 63 | 1011.5 |
| 20260509194016 | 20 | 179 | 9.7 | 11.3 | 0.00 | 0.00 | 0.00 | 62 | 1011.2 |
| 20260509193810 | 20 | 179 | 9.7 | 11.3 | 0.00 | 0.00 | 0.00 | 61 | 1011.2 |
| 20260509193610 | 20 | 179 | 9.7 | 11.3 | 0.00 | 0.00 | 0.00 | 61 | 1011.2 |
| 20260509193410 | 20 | 179 | 9.7 | 11.3 | 0.00 | 0.00 | 0.00 | 61 | 1011.2 |
| 20260509193024 | 20 | 179 | 9.7 | 11.3 | 0.00 | 0.00 | 0.00 | 61 | 1011.2 |
| 20260509192812 | 20 | 179 | 9.7 | 11.3 | 0.00 | 0.00 | 0.00 | 61 | 1011.2 |
| 20260509192610 | 20 | 179 | 9.7 | 11.3 | 0.00 | 0.00 | 0.00 | 60 | 1011.2 |
| 20260509192410 | 20 | 179 | 9.7 | 11.3 | 0.00 | 0.00 | 0.00 | 60 | 1011.2 |
| 20260509192017 | 20 | 179 | 9.7 | 11.3 | 0.00 | 0.00 | 0.00 | 59 | 1010.8 |
| 20260509191810 | 20 | 179 | 9.7 | 11.3 | 0.00 | 0.00 | 0.00 | 59 | 1011.2 |
| 20260509191610 | 20 | 179 | 9.7 | 11.3 | 0.00 | 0.00 | 0.00 | 59 | 1011.2 |
| 20260509191412 | 20 | 179 | 9.7 | 11.3 | 0.00 | 0.00 | 0.00 | 58 | 1010.8 |
| 20260509191210 | 20 | 179 | 9.7 | 11.3 | 0.00 | 0.00 | 0.00 | 58 | 1010.8 |
| 20260509191017 | 20 | 179 | 9.7 | 11.3 | 0.00 | 0.00 | 0.00 | 58 | 1010.8 |
| 20260509190610 | 21 | 179 | 9.7 | 11.3 | 0.00 | 0.00 | 0.00 | 57 | 1011.2 |
| 20260509190410 | 21 | 179 | 9.7 | 11.3 | 0.00 | 0.00 | 0.00 | 57 | 1010.8 |
| 20260509190210 | 21 | 179 | 9.7 | 11.3 | 0.00 | 0.00 | 0.00 | 57 | 1011.2 |
| 20260509190034 | 21 | 179 | 9.7 | 11.3 | 0.00 | 0.00 | 0.00 | 56 | 1010.8 |
| 20260509185810 | 21 | 179 | 9.7 | 11.3 | 0.00 | 0.00 | 0.00 | 56 | 1010.8 |
| 20260509185609 | 21 | 179 | 9.7 | 11.3 | 0.00 | 0.00 | 0.00 | 56 | 1010.8 |
| 20260509185410 | 21 | 179 | 9.7 | 11.3 | 0.00 | 0.00 | 0.00 | 55 | 1010.8 |
| 20260509185210 | 21 | 179 | 9.7 | 11.3 | 0.00 | 0.00 | 0.00 | 55 | 1010.8 |
| 20260509185016 | 21 | 179 | 9.7 | 11.3 | 0.00 | 0.00 | 0.00 | 55 | 1011.2 |
| 20260509184810 | 21 | 179 | 9.7 | 11.3 | 0.00 | 0.00 | 0.00 | 55 | 1010.8 |
| 20260509184410 | 21 | 178 | 11.3 | 12.9 | 0.00 | 0.00 | 0.00 | 55 | 1011.2 |
| 20260509184016 | 21 | 166 | 11.3 | 12.9 | 0.00 | 0.00 | 0.00 | 54 | 1010.8 |
| 20260509183810 | 22 | 167 | 11.3 | 12.9 | 0.00 | 0.00 | 0.00 | 53 | 1010.8 |
| 20260509183610 | 22 | 149 | 11.3 | 14.5 | 0.00 | 0.00 | 0.00 | 54 | 1010.8 |
| 20260509183410 | 22 | 172 | 9.7 | 12.9 | 0.00 | 0.00 | 0.00 | 53 | 1010.8 |
| 20260509183210 | 22 | 173 | 9.7 | 11.3 | 0.00 | 0.00 | 0.00 | 53 | 1010.8 |
| 20260509182810 | 22 | 176 | 6.4 | 11.3 | 0.00 | 0.00 | 0.00 | 53 | 1010.8 |
| 20260509182610 | 22 | 171 | 9.7 | 11.3 | 0.00 | 0.00 | 0.00 | 52 | 1010.5 |
| 20260509182411 | 22 | 155 | 9.7 | 17.7 | 0.00 | 0.00 | 0.00 | 52 | 1010.5 |
| 20260509182210 | 22 | 172 | 6.4 | 12.9 | 0.00 | 0.00 | 0.00 | 52 | 1010.8 |
| 20260509181810 | 22 | 166 | 6.4 | 12.9 | 0.00 | 0.00 | 0.00 | 52 | 1010.8 |
| 20260509181610 | 22 | 179 | 8.0 | 14.5 | 0.00 | 0.00 | 0.00 | 51 | 1010.5 |
| 20260509181410 | 22 | 152 | 9.7 | 17.7 | 0.00 | 0.00 | 0.00 | 51 | 1010.5 |
| 20260509181211 | 22 | 147 | 12.9 | 16.1 | 0.00 | 0.00 | 0.00 | 51 | 1010.8 |
| 20260509181016 | 22 | 160 | 8.0 | 14.5 | 0.00 | 0.00 | 0.00 | 51 | 1010.8 |
| 20260509180810 | 22 | 138 | 6.4 | 14.5 | 0.00 | 0.00 | 0.00 | 51 | 1010.8 |
| 20260509180610 | 22 | 143 | 12.9 | 17.7 | 0.00 | 0.00 | 0.00 | 51 | 1010.5 |
| 20260509175811 | 22 | 149 | 11.3 | 14.5 | 0.00 | 0.00 | 0.00 | 50 | 1010.5 |
| 20260509175610 | 22 | 155 | 9.7 | 17.7 | 0.00 | 0.00 | 0.00 | 50 | 1010.5 |
| 20260509175410 | 22 | 161 | 9.7 | 12.9 | 0.00 | 0.00 | 0.00 | 51 | 1010.8 |
| 20260509175211 | 22 | 173 | 9.7 | 14.5 | 0.00 | 0.00 | 0.00 | 51 | 1010.8 |
| 20260509175016 | 22 | 142 | 9.7 | 12.9 | 0.00 | 0.00 | 0.00 | 51 | 1010.8 |
| 20260509174610 | 22 | 154 | 9.7 | 14.5 | 0.00 | 0.00 | 0.00 | 51 | 1010.8 |
| 20260509174410 | 22 | 153 | 11.3 | 14.5 | 0.00 | 0.00 | 0.00 | 50 | 1010.8 |
| 20260509174210 | 22 | 170 | 9.7 | 11.3 | 0.00 | 0.00 | 0.00 | 51 | 1010.8 |
| 20260509173810 | 22 | 148 | 8.0 | 12.9 | 0.00 | 0.00 | 0.00 | 51 | 1010.5 |
| 20260509173410 | 22 | 180 | 6.4 | 14.5 | 0.00 | 0.00 | 0.00 | 51 | 1010.8 |
| 20260509173210 | 22 | 149 | 9.7 | 11.3 | 0.00 | 0.00 | 0.00 | 51 | 1010.5 |
| 20260509173025 | 22 | 137 | 9.7 | 12.9 | 0.00 | 0.00 | 0.00 | 50 | 1010.8 |
| 20260509172810 | 23 | 163 | 8.0 | 12.9 | 0.00 | 0.00 | 0.00 | 50 | 1010.8 |
| 20260509172611 | 23 | 161 | 8.0 | 16.1 | 0.00 | 0.00 | 0.00 | 50 | 1010.8 |
| 20260509172410 | 23 | 145 | 8.0 | 14.5 | 0.00 | 0.00 | 0.00 | 50 | 1010.8 |
| 20260509172210 | 23 | 170 | 11.3 | 17.7 | 0.00 | 0.00 | 0.00 | 49 | 1010.8 |
| 20260509172016 | 23 | 174 | 9.7 | 17.7 | 0.00 | 0.00 | 0.00 | 49 | 1010.8 |
| 20260509171810 | 23 | 160 | 12.9 | 16.1 | 0.00 | 0.00 | 0.00 | 49 | 1010.8 |
| 20260509171410 | 23 | 164 | 11.3 | 12.9 | 0.00 | 0.00 | 0.00 | 50 | 1010.8 |
| 20260509171210 | 23 | 184 | 11.3 | 14.5 | 0.00 | 0.00 | 0.00 | 50 | 1010.8 |
| 20260509171017 | 23 | 160 | 8.0 | 16.1 | 0.00 | 0.00 | 0.00 | 50 | 1011.2 |
| 20260509170810 | 23 | 184 | 9.7 | 14.5 | 0.00 | 0.00 | 0.00 | 51 | 1010.8 |
| 20260509170610 | 23 | 151 | 6.4 | 12.9 | 0.00 | 0.00 | 0.00 | 50 | 1010.8 |
| 20260509170410 | 23 | 172 | 12.9 | 14.5 | 0.00 | 0.00 | 0.00 | 50 | 1010.8 |
| 20260509170210 | 23 | 169 | 12.9 | 14.5 | 0.00 | 0.00 | 0.00 | 50 | 1011.2 |
| 20260509170034 | 23 | 170 | 8.0 | 12.9 | 0.00 | 0.00 | 0.00 | 49 | 1010.8 |
| 20260509165810 | 23 | 175 | 11.3 | 14.5 | 0.00 | 0.00 | 0.00 | 49 | 1010.8 |
| 20260509165611 | 23 | 164 | 12.9 | 17.7 | 0.00 | 0.00 | 0.00 | 49 | 1010.8 |
| 20260509165410 | 23 | 178 | 11.3 | 14.5 | 0.00 | 0.00 | 0.00 | 50 | 1010.8 |
| 20260509165210 | 23 | 170 | 9.7 | 12.9 | 0.00 | 0.00 | 0.00 | 49 | 1011.2 |
| 20260509165017 | 23 | 158 | 9.7 | 16.1 | 0.00 | 0.00 | 0.00 | 48 | 1011.2 |
| 20260509164810 | 23 | 87 | 6.4 | 12.9 | 0.00 | 0.00 | 0.00 | 49 | 1011.2 |
| 20260509164610 | 23 | 159 | 9.7 | 17.7 | 0.00 | 0.00 | 0.00 | 48 | 1011.2 |
| 20260509164210 | 23 | 134 | 12.9 | 16.1 | 0.00 | 0.00 | 0.00 | 49 | 1011.2 |
| 20260509164022 | 23 | 159 | 9.7 | 17.7 | 0.00 | 0.00 | 0.00 | 49 | 1011.2 |
| 20260509163810 | 23 | 153 | 6.4 | 17.7 | 0.00 | 0.00 | 0.00 | 49 | 1010.8 |
| 20260509163410 | 23 | 173 | 8.0 | 14.5 | 0.00 | 0.00 | 0.00 | 50 | 1010.8 |
| 20260509163210 | 23 | 164 | 9.7 | 14.5 | 0.00 | 0.00 | 0.00 | 49 | 1011.2 |
| 20260509163025 | 23 | 150 | 12.9 | 14.5 | 0.00 | 0.00 | 0.00 | 48 | 1011.2 |
| 20260509162810 | 23 | 138 | 12.9 | 14.5 | 0.00 | 0.00 | 0.00 | 48 | 1011.2 |
| 20260509162610 | 23 | 145 | 9.7 | 17.7 | 0.00 | 0.00 | 0.00 | 49 | 1011.2 |
| 20260509162410 | 23 | 171 | 11.3 | 14.5 | 0.00 | 0.00 | 0.00 | 49 | 1011.2 |
| 20260509162212 | 23 | 168 | 6.4 | 12.9 | 0.00 | 0.00 | 0.00 | 49 | 1011.2 |
| 20260509162016 | 23 | 147 | 11.3 | 17.7 | 0.00 | 0.00 | 0.00 | 48 | 1011.2 |
| 20260509161811 | 23 | 149 | 9.7 | 17.7 | 0.00 | 0.00 | 0.00 | 48 | 1010.8 |
| 20260509161410 | 23 | 166 | 8.0 | 17.7 | 0.00 | 0.00 | 0.00 | 48 | 1011.2 |
| 20260509161210 | 23 | 167 | 9.7 | 12.9 | 0.00 | 0.00 | 0.00 | 48 | 1011.2 |
| 20260509161016 | 23 | 177 | 8.0 | 12.9 | 0.00 | 0.00 | 0.00 | 47 | 1010.8 |
| 20260509160810 | 23 | 151 | 9.7 | 20.9 | 0.00 | 0.00 | 0.00 | 48 | 1011.2 |
| 20260509160610 | 23 | 157 | 8.0 | 16.1 | 0.00 | 0.00 | 0.00 | 48 | 1011.2 |
| 20260509160410 | 23 | 163 | 11.3 | 20.9 | 0.00 | 0.00 | 0.00 | 48 | 1010.8 |
| 20260509160211 | 23 | 162 | 9.7 | 17.7 | 0.00 | 0.00 | 0.00 | 48 | 1011.2 |
| 20260509160034 | 23 | 175 | 12.9 | 14.5 | 0.00 | 0.00 | 0.00 | 48 | 1011.2 |
| 20260509155810 | 23 | 166 | 8.0 | 16.1 | 0.00 | 0.00 | 0.00 | 48 | 1011.2 |
| 20260509155610 | 23 | 120 | 4.8 | 16.1 | 0.00 | 0.00 | 0.00 | 48 | 1011.2 |
| 20260509155410 | 23 | 165 | 4.8 | 16.1 | 0.00 | 0.00 | 0.00 | 48 | 1011.2 |
| 20260509155210 | 23 | 160 | 9.7 | 14.5 | 0.00 | 0.00 | 0.00 | 49 | 1011.2 |
| 20260509155018 | 23 | 172 | 9.7 | 17.7 | 0.00 | 0.00 | 0.00 | 48 | 1011.2 |
| 20260509154811 | 23 | 129 | 12.9 | 17.7 | 0.00 | 0.00 | 0.00 | 48 | 1011.2 |
| 20260509154410 | 23 | 157 | 12.9 | 14.5 | 0.00 | 0.00 | 0.00 | 48 | 1011.2 |
| 20260509154211 | 23 | 158 | 9.7 | 14.5 | 0.00 | 0.00 | 0.00 | 48 | 1011.2 |
| 20260509153810 | 23 | 152 | 14.5 | 14.5 | 0.00 | 0.00 | 0.00 | 49 | 1011.2 |
| 20260509153610 | 23 | 158 | 4.8 | 9.7 | 0.00 | 0.00 | 0.00 | 49 | 1011.5 |
| 20260509153410 | 23 | 152 | 4.8 | 17.7 | 0.00 | 0.00 | 0.00 | 49 | 1011.5 |
| 20260509153210 | 23 | 148 | 11.3 | 17.7 | 0.00 | 0.00 | 0.00 | 49 | 1011.5 |
| 20260509153025 | 23 | 162 | 8.0 | 14.5 | 0.00 | 0.00 | 0.00 | 49 | 1011.5 |
| 20260509152810 | 23 | 137 | 11.3 | 12.9 | 0.00 | 0.00 | 0.00 | 50 | 1011.5 |
| 20260509152610 | 23 | 145 | 9.7 | 14.5 | 0.00 | 0.00 | 0.00 | 51 | 1011.5 |
| 20260509152410 | 23 | 174 | 9.7 | 12.9 | 0.00 | 0.00 | 0.00 | 50 | 1011.5 |
| 20260509152210 | 23 | 166 | 9.7 | 20.9 | 0.00 | 0.00 | 0.00 | 50 | 1011.9 |
| 20260509152019 | 23 | 168 | 11.3 | 17.7 | 0.00 | 0.00 | 0.00 | 50 | 1011.5 |
| 20260509151810 | 23 | 158 | 14.5 | 20.9 | 0.00 | 0.00 | 0.00 | 50 | 1011.9 |
| 20260509151610 | 23 | 165 | 9.7 | 14.5 | 0.00 | 0.00 | 0.00 | 51 | 1011.9 |
| 20260509151411 | 23 | 151 | 12.9 | 14.5 | 0.00 | 0.00 | 0.00 | 51 | 1011.9 |
| 20260509151210 | 23 | 176 | 6.4 | 12.9 | 0.00 | 0.00 | 0.00 | 51 | 1011.5 |
| 20260509151017 | 22 | 179 | 8.0 | 12.9 | 0.00 | 0.00 | 0.00 | 51 | 1011.9 |
| 20260509150810 | 22 | 152 | 11.3 | 17.7 | 0.00 | 0.00 | 0.00 | 52 | 1011.9 |
| 20260509150611 | 22 | 157 | 9.7 | 11.3 | 0.00 | 0.00 | 0.00 | 51 | 1011.9 |
| 20260509150410 | 22 | 161 | 9.7 | 12.9 | 0.00 | 0.00 | 0.00 | 51 | 1011.9 |
| 20260509150211 | 23 | 170 | 9.7 | 14.5 | 0.00 | 0.00 | 0.00 | 51 | 1011.9 |
| 20260509150035 | 23 | 157 | 12.9 | 16.1 | 0.00 | 0.00 | 0.00 | 51 | 1011.9 |
| 20260509145810 | 23 | 111 | 6.4 | 14.5 | 0.00 | 0.00 | 0.00 | 52 | 1011.9 |
| 20260509145610 | 23 | 147 | 11.3 | 16.1 | 0.00 | 0.00 | 0.00 | 52 | 1011.9 |
| 20260509145210 | 23 | 156 | 9.7 | 12.9 | 0.00 | 0.00 | 0.00 | 51 | 1011.9 |
| 20260509144610 | 23 | 122 | 6.4 | 16.1 | 0.00 | 0.00 | 0.00 | 51 | 1011.9 |
| 20260509144410 | 23 | 180 | 11.3 | 12.9 | 0.00 | 0.00 | 0.00 | 51 | 1011.9 |
| 20260509144017 | 23 | 140 | 11.3 | 14.5 | 0.00 | 0.00 | 0.00 | 50 | 1011.9 |
| 20260509143810 | 23 | 179 | 8.0 | 14.5 | 0.00 | 0.00 | 0.00 | 50 | 1011.9 |
| 20260509143610 | 23 | 140 | 8.0 | 16.1 | 0.00 | 0.00 | 0.00 | 50 | 1011.9 |
| 20260509143410 | 23 | 121 | 12.9 | 17.7 | 0.00 | 0.00 | 0.00 | 50 | 1011.9 |
| 20260509143210 | 23 | 154 | 8.0 | 17.7 | 0.00 | 0.00 | 0.00 | 50 | 1011.9 |
| 20260509143026 | 23 | 148 | 12.9 | 17.7 | 0.00 | 0.00 | 0.00 | 50 | 1011.9 |
| 20260509142210 | 23 | 162 | 11.3 | 12.9 | 0.00 | 0.00 | 0.00 | 50 | 1011.9 |
| 20260509141610 | 23 | 173 | 6.4 | 20.9 | 0.00 | 0.00 | 0.00 | 50 | 1011.9 |
| 20260509141410 | 23 | 111 | 11.3 | 14.5 | 0.00 | 0.00 | 0.00 | 51 | 1011.9 |
| 20260509141210 | 22 | 163 | 8.0 | 20.9 | 0.00 | 0.00 | 0.00 | 50 | 1011.9 |
| 20260509141017 | 22 | 125 | 12.9 | 14.5 | 0.00 | 0.00 | 0.00 | 51 | 1011.9 |
| 20260509140810 | 22 | 127 | 4.8 | 16.1 | 0.00 | 0.00 | 0.00 | 51 | 1011.9 |
| 20260509140610 | 22 | 168 | 8.0 | 14.5 | 0.00 | 0.00 | 0.00 | 51 | 1011.9 |
| 20260509140411 | 23 | 175 | 9.7 | 12.9 | 0.00 | 0.00 | 0.00 | 50 | 1011.9 |
| 20260509140211 | 23 | 176 | 9.7 | 14.5 | 0.00 | 0.00 | 0.00 | 50 | 1011.9 |
| 20260509140035 | 23 | 174 | 9.7 | 14.5 | 0.00 | 0.00 | 0.00 | 51 | 1011.9 |
| 20260509135611 | 23 | 164 | 9.7 | 12.9 | 0.00 | 0.00 | 0.00 | 52 | 1011.9 |
| 20260509135210 | 23 | 147 | 11.3 | 16.1 | 0.00 | 0.00 | 0.00 | 50 | 1011.9 |
| 20260509135016 | 23 | 153 | 9.7 | 14.5 | 0.00 | 0.00 | 0.00 | 50 | 1011.9 |
| 20260509134812 | 23 | 167 | 12.9 | 17.7 | 0.00 | 0.00 | 0.00 | 50 | 1011.9 |
| 20260509134610 | 23 | 158 | 8.0 | 16.1 | 0.00 | 0.00 | 0.00 | 49 | 1011.9 |
| 20260509134410 | 23 | 161 | 9.7 | 17.7 | 0.00 | 0.00 | 0.00 | 50 | 1011.9 |
| 20260509134210 | 23 | 155 | 11.3 | 22.5 | 0.00 | 0.00 | 0.00 | 51 | 1011.9 |
| 20260509133810 | 23 | 138 | 12.9 | 14.5 | 0.00 | 0.00 | 0.00 | 48 | 1011.9 |
| 20260509133610 | 23 | 152 | 9.7 | 17.7 | 0.00 | 0.00 | 0.00 | 49 | 1011.9 |
| 20260509133210 | 23 | 142 | 12.9 | 14.5 | 0.00 | 0.00 | 0.00 | 48 | 1011.9 |
| 20260509133026 | 23 | 174 | 8.0 | 17.7 | 0.00 | 0.00 | 0.00 | 49 | 1011.9 |
| 20260509132810 | 23 | 154 | 12.9 | 16.1 | 0.00 | 0.00 | 0.00 | 49 | 1012.2 |
| 20260509132611 | 23 | 149 | 12.9 | 16.1 | 0.00 | 0.00 | 0.00 | 50 | 1012.2 |
| 20260509132210 | 23 | 156 | 11.3 | 14.5 | 0.00 | 0.00 | 0.00 | 49 | 1012.2 |
| 20260509132018 | 23 | 175 | 6.4 | 22.5 | 0.00 | 0.00 | 0.00 | 48 | 1012.2 |
| 20260509131810 | 23 | 170 | 12.9 | 17.7 | 0.00 | 0.00 | 0.00 | 49 | 1012.2 |
| 20260509131610 | 23 | 171 | 11.3 | 16.1 | 0.00 | 0.00 | 0.00 | 48 | 1012.2 |
| 20260509131410 | 24 | 163 | 9.7 | 16.1 | 0.00 | 0.00 | 0.00 | 47 | 1012.2 |
| 20260509131210 | 24 | 168 | 9.7 | 16.1 | 0.00 | 0.00 | 0.00 | 48 | 1012.2 |
| 20260509131018 | 24 | 148 | 4.8 | 16.1 | 0.00 | 0.00 | 0.00 | 48 | 1012.2 |
| 20260509130810 | 24 | 157 | 4.8 | 17.7 | 0.00 | 0.00 | 0.00 | 48 | 1012.2 |
| 20260509130610 | 24 | 170 | 8.0 | 14.5 | 0.00 | 0.00 | 0.00 | 49 | 1012.2 |
| 20260509130411 | 24 | 146 | 11.3 | 20.9 | 0.00 | 0.00 | 0.00 | 48 | 1011.9 |
| 20260509130211 | 24 | 161 | 6.4 | 17.7 | 0.00 | 0.00 | 0.00 | 48 | 1011.9 |
| 20260509130035 | 24 | 149 | 6.4 | 17.7 | 0.00 | 0.00 | 0.00 | 47 | 1012.2 |
| 20260509125810 | 25 | 165 | 9.7 | 19.3 | 0.00 | 0.00 | 0.00 | 47 | 1012.2 |
| 20260509125611 | 25 | 122 | 14.5 | 17.7 | 0.00 | 0.00 | 0.00 | 47 | 1012.2 |
| 20260509125411 | 25 | 139 | 14.5 | 17.7 | 0.00 | 0.00 | 0.00 | 47 | 1012.5 |
| 20260509125210 | 25 | 169 | 9.7 | 14.5 | 0.00 | 0.00 | 0.00 | 47 | 1012.2 |
| 20260509125017 | 25 | 164 | 6.4 | 12.9 | 0.00 | 0.00 | 0.00 | 48 | 1012.2 |
| 20260509124811 | 25 | 162 | 9.7 | 20.9 | 0.00 | 0.00 | 0.00 | 48 | 1012.2 |
| 20260509124610 | 25 | 171 | 9.7 | 20.9 | 0.00 | 0.00 | 0.00 | 48 | 1012.5 |
| 20260509124410 | 25 | 158 | 9.7 | 14.5 | 0.00 | 0.00 | 0.00 | 47 | 1012.2 |
| 20260509124210 | 25 | 174 | 8.0 | 17.7 | 0.00 | 0.00 | 0.00 | 47 | 1012.5 |
| 20260509124016 | 25 | 132 | 11.3 | 20.9 | 0.00 | 0.00 | 0.00 | 47 | 1012.2 |
| 20260509123810 | 25 | 142 | 14.5 | 20.9 | 0.00 | 0.00 | 0.00 | 47 | 1012.2 |
| 20260509123610 | 25 | 171 | 9.7 | 16.1 | 0.00 | 0.00 | 0.00 | 46 | 1012.5 |
| 20260509123410 | 25 | 123 | 14.5 | 19.3 | 0.00 | 0.00 | 0.00 | 46 | 1012.9 |
| 20260509123025 | 25 | 146 | 9.7 | 12.9 | 0.00 | 0.00 | 0.00 | 47 | 1012.5 |
| 20260509122810 | 25 | 183 | 6.4 | 14.5 | 0.00 | 0.00 | 0.00 | 48 | 1012.5 |
| 20260509122410 | 25 | 165 | 8.0 | 17.7 | 0.00 | 0.00 | 0.00 | 47 | 1012.5 |
| 20260509122017 | 25 | 159 | 6.4 | 16.1 | 0.00 | 0.00 | 0.00 | 47 | 1012.5 |
| 20260509121810 | 25 | 166 | 9.7 | 14.5 | 0.00 | 0.00 | 0.00 | 46 | 1012.9 |
| 20260509121610 | 25 | 151 | 12.9 | 19.3 | 0.00 | 0.00 | 0.00 | 46 | 1012.9 |
| 20260509121412 | 25 | 169 | 8.0 | 16.1 | 0.00 | 0.00 | 0.00 | 45 | 1012.9 |
| 20260509121210 | 25 | 156 | 12.9 | 22.5 | 0.00 | 0.00 | 0.00 | 46 | 1012.9 |
| 20260509121017 | 25 | 176 | 12.9 | 14.5 | 0.00 | 0.00 | 0.00 | 47 | 1012.9 |
| 20260509120810 | 25 | 157 | 12.9 | 17.7 | 0.00 | 0.00 | 0.00 | 46 | 1012.9 |
| 20260509120611 | 25 | 150 | 8.0 | 17.7 | 0.00 | 0.00 | 0.00 | 46 | 1013.2 |
| 20260509120210 | 25 | 156 | 14.5 | 19.3 | 0.00 | 0.00 | 0.00 | 48 | 1012.9 |
| 20260509120035 | 25 | 155 | 11.3 | 17.7 | 0.00 | 0.00 | 0.00 | 46 | 1012.9 |
| 20260509115810 | 25 | 170 | 17.7 | 20.9 | 0.00 | 0.00 | 0.00 | 46 | 1012.5 |
| 20260509115610 | 25 | 165 | 16.1 | 20.9 | 0.00 | 0.00 | 0.00 | 46 | 1012.9 |
| 20260509115017 | 25 | 164 | 6.4 | 17.7 | 0.00 | 0.00 | 0.00 | 47 | 1012.9 |
| 20260509114810 | 25 | 143 | 12.9 | 14.5 | 0.00 | 0.00 | 0.00 | 48 | 1012.9 |
| 20260509114610 | 25 | 155 | 9.7 | 12.9 | 0.00 | 0.00 | 0.00 | 48 | 1012.9 |
| 20260509114410 | 25 | 126 | 6.4 | 14.5 | 0.00 | 0.00 | 0.00 | 48 | 1012.9 |
| 20260509114210 | 25 | 155 | 9.7 | 14.5 | 0.00 | 0.00 | 0.00 | 48 | 1013.2 |
| 20260509114017 | 25 | 139 | 12.9 | 19.3 | 0.00 | 0.00 | 0.00 | 48 | 1012.9 |
| 20260509113810 | 25 | 141 | 11.3 | 17.7 | 0.00 | 0.00 | 0.00 | 48 | 1013.2 |
| 20260509113610 | 25 | 147 | 8.0 | 14.5 | 0.00 | 0.00 | 0.00 | 48 | 1013.2 |
| 20260509113411 | 25 | 151 | 9.7 | 14.5 | 0.00 | 0.00 | 0.00 | 49 | 1013.2 |
| 20260509113210 | 25 | 174 | 6.4 | 16.1 | 0.00 | 0.00 | 0.00 | 48 | 1013.2 |
| 20260509113025 | 25 | 134 | 12.9 | 16.1 | 0.00 | 0.00 | 0.00 | 49 | 1012.9 |
| 20260509112610 | 25 | 150 | 4.8 | 16.1 | 0.00 | 0.00 | 0.00 | 48 | 1013.2 |
| 20260509112410 | 25 | 157 | 9.7 | 12.9 | 0.00 | 0.00 | 0.00 | 49 | 1013.2 |
| 20260509112210 | 25 | 160 | 8.0 | 12.9 | 0.00 | 0.00 | 0.00 | 50 | 1013.2 |
| 20260509112016 | 25 | 166 | 4.8 | 12.9 | 0.00 | 0.00 | 0.00 | 51 | 1013.5 |
| 20260509111810 | 25 | 155 | 6.4 | 17.7 | 0.00 | 0.00 | 0.00 | 52 | 1013.2 |
| 20260509111610 | 25 | 165 | 6.4 | 12.9 | 0.00 | 0.00 | 0.00 | 53 | 1013.2 |
| 20260509111017 | 24 | 162 | 4.8 | 14.5 | 0.00 | 0.00 | 0.00 | 52 | 1013.5 |
| 20260509110812 | 24 | 178 | 6.4 | 14.5 | 0.00 | 0.00 | 0.00 | 51 | 1013.5 |
| 20260509110610 | 24 | 175 | 9.7 | 14.5 | 0.00 | 0.00 | 0.00 | 52 | 1013.5 |
| 20260509110411 | 23 | 163 | 6.4 | 17.7 | 0.00 | 0.00 | 0.00 | 51 | 1013.5 |
| 20260509110210 | 23 | 164 | 8.0 | 14.5 | 0.00 | 0.00 | 0.00 | 53 | 1013.5 |
| 20260509110036 | 23 | 169 | 12.9 | 16.1 | 0.00 | 0.00 | 0.00 | 51 | 1013.5 |
| 20260509105610 | 23 | 151 | 17.7 | 17.7 | 0.00 | 0.00 | 0.00 | 52 | 1013.5 |
| 20260509105210 | 23 | 157 | 9.7 | 16.1 | 0.00 | 0.00 | 0.00 | 52 | 1013.5 |
| 20260509105017 | 23 | 151 | 12.9 | 12.9 | 0.00 | 0.00 | 0.00 | 52 | 1013.5 |
| 20260509104811 | 23 | 159 | 6.4 | 12.9 | 0.00 | 0.00 | 0.00 | 54 | 1013.5 |
| 20260509104610 | 23 | 154 | 9.7 | 14.5 | 0.00 | 0.00 | 0.00 | 52 | 1013.5 |
| 20260509104410 | 23 | 155 | 12.9 | 16.1 | 0.00 | 0.00 | 0.00 | 52 | 1013.5 |
| 20260509104210 | 23 | 171 | 12.9 | 14.5 | 0.00 | 0.00 | 0.00 | 53 | 1013.5 |
| 20260509104017 | 23 | 171 | 11.3 | 16.1 | 0.00 | 0.00 | 0.00 | 52 | 1013.5 |
| 20260509103810 | 23 | 164 | 6.4 | 12.9 | 0.00 | 0.00 | 0.00 | 55 | 1013.5 |
| 20260509103410 | 23 | 158 | 9.7 | 12.9 | 0.00 | 0.00 | 0.00 | 55 | 1013.9 |
| 20260509103210 | 23 | 138 | 4.8 | 12.9 | 0.00 | 0.00 | 0.00 | 56 | 1013.9 |
| 20260509103026 | 23 | 165 | 6.4 | 12.9 | 0.00 | 0.00 | 0.00 | 56 | 1013.9 |
| 20260509102612 | 23 | 175 | 11.3 | 14.5 | 0.00 | 0.00 | 0.00 | 56 | 1013.5 |
| 20260509102411 | 22 | 154 | 6.4 | 14.5 | 0.00 | 0.00 | 0.00 | 56 | 1013.9 |
| 20260509102210 | 22 | 139 | 12.9 | 14.5 | 0.00 | 0.00 | 0.00 | 56 | 1013.9 |
| 20260509102018 | 22 | 163 | 6.4 | 12.9 | 0.00 | 0.00 | 0.00 | 57 | 1013.9 |
| 20260509101810 | 22 | 171 | 8.0 | 14.5 | 0.00 | 0.00 | 0.00 | 58 | 1013.5 |
| 20260509101610 | 22 | 147 | 8.0 | 16.1 | 0.00 | 0.00 | 0.00 | 58 | 1013.9 |
| 20260509101210 | 22 | 155 | 9.7 | 16.1 | 0.00 | 0.00 | 0.00 | 57 | 1013.9 |
| 20260509100811 | 22 | 124 | 16.1 | 16.1 | 0.00 | 0.00 | 0.00 | 57 | 1013.9 |
| 20260509100035 | 22 | 150 | 9.7 | 14.5 | 0.00 | 0.00 | 0.00 | 58 | 1013.9 |
| 20260509095810 | 21 | 174 | 9.7 | 12.9 | 0.00 | 0.00 | 0.00 | 60 | 1013.9 |
| 20260509095610 | 21 | 176 | 11.3 | 12.9 | 0.00 | 0.00 | 0.00 | 59 | 1013.9 |
| 20260509095410 | 21 | 176 | 8.0 | 14.5 | 0.00 | 0.00 | 0.00 | 60 | 1013.9 |
| 20260509095210 | 21 | 149 | 12.9 | 16.1 | 0.00 | 0.00 | 0.00 | 60 | 1013.9 |
| 20260509095016 | 21 | 148 | 8.0 | 14.5 | 0.00 | 0.00 | 0.00 | 59 | 1013.9 |
| 20260509094811 | 21 | 163 | 8.0 | 14.5 | 0.00 | 0.00 | 0.00 | 59 | 1013.9 |
| 20260509094610 | 21 | 169 | 11.3 | 17.7 | 0.00 | 0.00 | 0.00 | 61 | 1013.9 |
| 20260509094410 | 21 | 152 | 11.3 | 17.7 | 0.00 | 0.00 | 0.00 | 61 | 1013.9 |
| 20260509094211 | 21 | 160 | 6.4 | 14.5 | 0.00 | 0.00 | 0.00 | 61 | 1014.2 |
| 20260509093810 | 21 | 171 | 6.4 | 9.7 | 0.00 | 0.00 | 0.00 | 63 | 1014.2 |
| 20260509093610 | 21 | 164 | 8.0 | 12.9 | 0.00 | 0.00 | 0.00 | 63 | 1013.9 |
| 20260509093412 | 21 | 148 | 12.9 | 12.9 | 0.00 | 0.00 | 0.00 | 61 | 1014.2 |
| 20260509093210 | 21 | 159 | 9.7 | 17.7 | 0.00 | 0.00 | 0.00 | 63 | 1014.2 |
| 20260509093025 | 21 | 150 | 9.7 | 16.1 | 0.00 | 0.00 | 0.00 | 63 | 1014.2 |
| 20260509092810 | 20 | 151 | 9.7 | 16.1 | 0.00 | 0.00 | 0.00 | 63 | 1013.9 |
| 20260509092610 | 20 | 179 | 6.4 | 14.5 | 0.00 | 0.00 | 0.00 | 65 | 1014.2 |
| 20260509092410 | 20 | 174 | 8.0 | 11.3 | 0.00 | 0.00 | 0.00 | 65 | 1014.2 |
| 20260509092210 | 20 | 163 | 8.0 | 14.5 | 0.00 | 0.00 | 0.00 | 65 | 1014.2 |
| 20260509092019 | 20 | 159 | 8.0 | 12.9 | 0.00 | 0.00 | 0.00 | 67 | 1014.2 |
| 20260509091810 | 20 | 154 | 11.3 | 14.5 | 0.00 | 0.00 | 0.00 | 65 | 1014.2 |
| 20260509091410 | 20 | 161 | 9.7 | 17.7 | 0.00 | 0.00 | 0.00 | 65 | 1014.2 |
| 20260509091210 | 19 | 162 | 11.3 | 14.5 | 0.00 | 0.00 | 0.00 | 65 | 1014.2 |
| 20260509091016 | 19 | 147 | 11.3 | 12.9 | 0.00 | 0.00 | 0.00 | 66 | 1014.2 |
| 20260509090810 | 19 | 162 | 6.4 | 11.3 | 0.00 | 0.00 | 0.00 | 67 | 1014.2 |
| 20260509090411 | 19 | 173 | 8.0 | 17.7 | 0.00 | 0.00 | 0.00 | 66 | 1013.9 |
| 20260509090210 | 19 | 142 | 14.5 | 17.7 | 0.00 | 0.00 | 0.00 | 66 | 1014.2 |
| 20260509090033 | 19 | 174 | 9.7 | 14.5 | 0.00 | 0.00 | 0.00 | 66 | 1014.2 |
| 20260509085810 | 19 | 165 | 6.4 | 14.5 | 0.00 | 0.00 | 0.00 | 67 | 1014.2 |
| 20260509085610 | 19 | 171 | 8.0 | 11.3 | 0.00 | 0.00 | 0.00 | 68 | 1014.2 |
| 20260509085410 | 19 | 148 | 11.3 | 12.9 | 0.00 | 0.00 | 0.00 | 68 | 1014.2 |
| 20260509085210 | 18 | 160 | 12.9 | 12.9 | 0.00 | 0.00 | 0.00 | 69 | 1014.2 |
| 20260509085017 | 18 | 165 | 6.4 | 12.9 | 0.00 | 0.00 | 0.00 | 69 | 1014.2 |
| 20260509084610 | 18 | 167 | 9.7 | 14.5 | 0.00 | 0.00 | 0.00 | 70 | 1014.2 |
| 20260509084410 | 18 | 145 | 12.9 | 14.5 | 0.00 | 0.00 | 0.00 | 71 | 1014.2 |
| 20260509084016 | 18 | 155 | 11.3 | 11.3 | 0.00 | 0.00 | 0.00 | 71 | 1014.2 |
| 20260509083810 | 18 | 180 | 8.0 | 14.5 | 0.00 | 0.00 | 0.00 | 70 | 1014.2 |
| 20260509083610 | 18 | 146 | 12.9 | 16.1 | 0.00 | 0.00 | 0.00 | 71 | 1014.2 |
| 20260509083410 | 18 | 150 | 11.3 | 12.9 | 0.00 | 0.00 | 0.00 | 72 | 1014.2 |
| 20260509083210 | 18 | 156 | 8.0 | 14.5 | 0.00 | 0.00 | 0.00 | 71 | 1014.2 |
| 20260509083026 | 18 | 163 | 8.0 | 12.9 | 0.00 | 0.00 | 0.00 | 72 | 1014.2 |
| 20260509082811 | 18 | 159 | 8.0 | 12.9 | 0.00 | 0.00 | 0.00 | 73 | 1014.2 |
| 20260509082609 | 18 | 165 | 11.3 | 12.9 | 0.00 | 0.00 | 0.00 | 75 | 1014.6 |
| 20260509082410 | 17 | 159 | 6.4 | 14.5 | 0.00 | 0.00 | 0.00 | 74 | 1014.2 |
| 20260509082210 | 17 | 158 | 8.0 | 17.7 | 0.00 | 0.00 | 0.00 | 74 | 1014.6 |
| 20260509082016 | 17 | 166 | 8.0 | 14.5 | 0.00 | 0.00 | 0.00 | 75 | 1014.6 |
| 20260509081810 | 17 | 138 | 14.5 | 14.5 | 0.00 | 0.00 | 0.00 | 75 | 1014.6 |
| 20260509081610 | 17 | 145 | 9.7 | 16.1 | 0.00 | 0.00 | 0.00 | 75 | 1014.6 |
| 20260509081410 | 17 | 150 | 11.3 | 12.9 | 0.00 | 0.00 | 0.00 | 77 | 1014.2 |
| 20260509081210 | 17 | 160 | 4.8 | 12.9 | 0.00 | 0.00 | 0.00 | 77 | 1014.6 |
| 20260509081017 | 17 | 153 | 9.7 | 12.9 | 0.00 | 0.00 | 0.00 | 77 | 1014.2 |
| 20260509080610 | 16 | 160 | 6.4 | 12.9 | 0.00 | 0.00 | 0.00 | 77 | 1014.6 |
| 20260509080410 | 16 | 142 | 9.7 | 16.1 | 0.00 | 0.00 | 0.00 | 78 | 1014.2 |
| 20260509080210 | 16 | 169 | 9.7 | 14.5 | 0.00 | 0.00 | 0.00 | 77 | 1014.6 |
| 20260509080035 | 16 | 168 | 9.7 | 14.5 | 0.00 | 0.00 | 0.00 | 78 | 1014.2 |
| 20260509075410 | 16 | 177 | 12.9 | 14.5 | 0.00 | 0.00 | 0.00 | 78 | 1014.2 |
| 20260509075210 | 16 | 161 | 12.9 | 16.1 | 0.00 | 0.00 | 0.00 | 78 | 1014.2 |
| 20260509075016 | 16 | 173 | 9.7 | 14.5 | 0.00 | 0.00 | 0.00 | 78 | 1014.6 |
| 20260509074810 | 16 | 169 | 8.0 | 16.1 | 0.00 | 0.00 | 0.00 | 79 | 1014.2 |
| 20260509074611 | 16 | 156 | 12.9 | 17.7 | 0.00 | 0.00 | 0.00 | 79 | 1014.6 |
| 20260509074410 | 16 | 134 | 14.5 | 19.3 | 0.00 | 0.00 | 0.00 | 80 | 1014.6 |
| 20260509074210 | 16 | 155 | 9.7 | 17.7 | 0.00 | 0.00 | 0.00 | 80 | 1014.6 |
| 20260509073810 | 15 | 158 | 8.0 | 14.5 | 0.00 | 0.00 | 0.00 | 81 | 1014.6 |
| 20260509073610 | 15 | 164 | 9.7 | 14.5 | 0.00 | 0.00 | 0.00 | 81 | 1014.6 |
| 20260509073412 | 15 | 157 | 8.0 | 14.5 | 0.00 | 0.00 | 0.00 | 82 | 1014.6 |
| 20260509073210 | 15 | 138 | 14.5 | 14.5 | 0.00 | 0.00 | 0.00 | 83 | 1014.6 |
| 20260509072810 | 15 | 161 | 6.4 | 12.9 | 0.00 | 0.00 | 0.00 | 83 | 1014.6 |
| 20260509072610 | 15 | 163 | 8.0 | 12.9 | 0.00 | 0.00 | 0.00 | 83 | 1014.6 |
| 20260509072410 | 15 | 152 | 11.3 | 12.9 | 0.00 | 0.00 | 0.00 | 83 | 1014.6 |
| 20260509072016 | 14 | 161 | 11.3 | 12.9 | 0.00 | 0.00 | 0.00 | 85 | 1014.9 |
| 20260509071810 | 14 | 180 | 6.4 | 11.3 | 0.00 | 0.00 | 0.00 | 85 | 1014.6 |
| 20260509071610 | 14 | 163 | 4.8 | 17.7 | 0.00 | 0.00 | 0.00 | 85 | 1014.6 |
| 20260509071410 | 14 | 159 | 6.4 | 12.9 | 0.00 | 0.00 | 0.00 | 85 | 1014.6 |
| 20260509071210 | 13 | 153 | 11.3 | 12.9 | 0.00 | 0.00 | 0.00 | 85 | 1014.6 |
| 20260509071018 | 13 | 165 | 9.7 | 19.3 | 0.00 | 0.00 | 0.00 | 86 | 1014.9 |
| 20260509070809 | 13 | 137 | 12.9 | 19.3 | 0.00 | 0.00 | 0.00 | 86 | 1014.6 |
| 20260509070610 | 13 | 165 | 9.7 | 12.9 | 0.00 | 0.00 | 0.00 | 87 | 1014.9 |
| 20260509070410 | 13 | 162 | 9.7 | 11.3 | 0.00 | 0.00 | 0.00 | 88 | 1014.6 |
| 20260509070210 | 13 | 184 | 6.4 | 12.9 | 0.00 | 0.00 | 0.00 | 88 | 1014.6 |
| 20260509070036 | 12 | 159 | 8.0 | 17.7 | 0.00 | 0.00 | 0.00 | 89 | 1014.6 |
| 20260509065810 | 12 | 154 | 8.0 | 17.7 | 0.00 | 0.00 | 0.00 | 89 | 1014.6 |
| 20260509065211 | 12 | 144 | 8.0 | 14.5 | 0.00 | 0.00 | 0.00 | 91 | 1014.6 |
| 20260509064810 | 11 | 157 | 11.3 | 14.5 | 0.00 | 0.00 | 0.00 | 94 | 1014.9 |
| 20260509064610 | 11 | 157 | 9.7 | 11.3 | 0.00 | 0.00 | 0.00 | 94 | 1014.6 |
| 20260509064410 | 11 | 155 | 9.7 | 11.3 | 0.00 | 0.00 | 0.00 | 95 | 1014.9 |
| 20260509064210 | 11 | 176 | 9.7 | 9.7 | 0.00 | 0.00 | 0.00 | 96 | 1014.9 |
| 20260509063810 | 11 | 173 | 8.0 | 9.7 | 0.00 | 0.00 | 0.00 | 97 | 1014.6 |
| 20260509063610 | 11 | 173 | 9.7 | 9.7 | 0.00 | 0.00 | 0.00 | 97 | 1014.6 |
| 20260509063410 | 11 | 175 | 9.7 | 9.7 | 0.00 | 0.00 | 0.00 | 97 | 1014.6 |
| 20260509063210 | 10 | 167 | 9.7 | 12.9 | 0.00 | 0.00 | 0.00 | 97 | 1014.9 |
| 20260509062810 | 10 | 173 | 9.7 | 9.7 | 0.00 | 0.00 | 0.00 | 97 | 1014.6 |
| 20260509062610 | 10 | 170 | 9.7 | 9.7 | 0.00 | 0.00 | 0.00 | 97 | 1014.9 |
| 20260509062411 | 10 | 172 | 9.7 | 9.7 | 0.00 | 0.00 | 0.00 | 97 | 1014.6 |
| 20260509062210 | 10 | 171 | 9.7 | 9.7 | 0.00 | 0.00 | 0.00 | 97 | 1014.9 |
| 20260509062018 | 10 | 173 | 9.7 | 9.7 | 0.00 | 0.00 | 0.00 | 96 | 1014.6 |
| 20260509061810 | 10 | 178 | 9.7 | 9.7 | 0.00 | 0.00 | 0.00 | 96 | 1014.9 |
| 20260509061610 | 10 | 175 | 9.7 | 9.7 | 0.00 | 0.00 | 0.00 | 96 | 1014.9 |
| 20260509061410 | 10 | 172 | 8.0 | 9.7 | 0.00 | 0.00 | 0.00 | 96 | 1014.9 |
| 20260509061210 | 10 | 171 | 8.0 | 9.7 | 0.00 | 0.00 | 0.00 | 96 | 1014.9 |
| 20260509061017 | 9 | 175 | 8.0 | 9.7 | 0.00 | 0.00 | 0.00 | 96 | 1014.9 |
| 20260509060809 | 9 | 173 | 9.7 | 9.7 | 0.00 | 0.00 | 0.00 | 96 | 1014.9 |
| 20260509060610 | 9 | 176 | 9.7 | 9.7 | 0.00 | 0.00 | 0.00 | 96 | 1014.9 |
| 20260509060210 | 9 | 172 | 9.7 | 9.7 | 0.00 | 0.00 | 0.00 | 96 | 1014.6 |
| 20260509060032 | 9 | 171 | 9.7 | 11.3 | 0.00 | 0.00 | 0.00 | 96 | 1014.6 |
| 20260509055810 | 9 | 169 | 9.7 | 11.3 | 0.00 | 0.00 | 0.00 | 96 | 1014.6 |
| 20260509055410 | 8 | 178 | 9.7 | 11.3 | 0.00 | 0.00 | 0.00 | 96 | 1014.6 |
| 20260509055017 | 8 | 178 | 9.7 | 9.7 | 0.00 | 0.00 | 0.00 | 96 | 1014.6 |
| 20260509054610 | 8 | 172 | 8.0 | 9.7 | 0.00 | 0.00 | 0.00 | 96 | 1014.6 |
| 20260509054410 | 8 | 176 | 8.0 | 9.7 | 0.00 | 0.00 | 0.00 | 96 | 1014.6 |
| 20260509054017 | 8 | 169 | 8.0 | 9.7 | 0.00 | 0.00 | 0.00 | 96 | 1014.9 |
| 20260509053810 | 8 | 164 | 9.7 | 9.7 | 0.00 | 0.00 | 0.00 | 96 | 1014.6 |
| 20260509053610 | 8 | 169 | 9.7 | 9.7 | 0.00 | 0.00 | 0.00 | 96 | 1014.6 |
| 20260509053410 | 8 | 175 | 9.7 | 9.7 | 0.00 | 0.00 | 0.00 | 96 | 1014.6 |
| 20260509053210 | 8 | 176 | 8.0 | 11.3 | 0.00 | 0.00 | 0.00 | 96 | 1014.6 |
| 20260509052810 | 8 | 171 | 9.7 | 12.9 | 0.00 | 0.00 | 0.00 | 95 | 1014.6 |
| 20260509052610 | 8 | 173 | 12.9 | 12.9 | 0.00 | 0.00 | 0.00 | 95 | 1014.2 |
| 20260509052410 | 8 | 176 | 9.7 | 12.9 | 0.00 | 0.00 | 0.00 | 95 | 1014.6 |
| 20260509052210 | 8 | 175 | 11.3 | 12.9 | 0.00 | 0.00 | 0.00 | 95 | 1014.6 |
| 20260509051810 | 8 | 171 | 6.4 | 11.3 | 0.00 | 0.00 | 0.00 | 95 | 1014.6 |
| 20260509051610 | 8 | 177 | 9.7 | 9.7 | 0.00 | 0.00 | 0.00 | 95 | 1014.6 |
| 20260509051410 | 8 | 180 | 9.7 | 9.7 | 0.00 | 0.00 | 0.00 | 95 | 1014.6 |
| 20260509051210 | 8 | 182 | 6.4 | 9.7 | 0.00 | 0.00 | 0.00 | 95 | 1014.6 |
| 20260509050810 | 8 | 171 | 9.7 | 11.3 | 0.00 | 0.00 | 0.00 | 95 | 1014.6 |
| 20260509050610 | 8 | 181 | 9.7 | 12.9 | 0.00 | 0.00 | 0.00 | 95 | 1014.2 |
| 20260509050411 | 8 | 180 | 11.3 | 12.9 | 0.00 | 0.00 | 0.00 | 95 | 1014.2 |
| 20260509050210 | 8 | 176 | 11.3 | 12.9 | 0.00 | 0.00 | 0.00 | 95 | 1014.2 |
| 20260509050032 | 8 | 171 | 12.9 | 12.9 | 0.00 | 0.00 | 0.00 | 95 | 1014.2 |
| 20260509045810 | 8 | 173 | 9.7 | 11.3 | 0.00 | 0.00 | 0.00 | 95 | 1014.2 |
| 20260509045610 | 7 | 182 | 8.0 | 9.7 | 0.00 | 0.00 | 0.00 | 95 | 1014.2 |
| 20260509045410 | 7 | 178 | 8.0 | 9.7 | 0.00 | 0.00 | 0.00 | 95 | 1014.2 |
| 20260509045210 | 7 | 178 | 9.7 | 11.3 | 0.00 | 0.00 | 0.00 | 95 | 1014.6 |
| 20260509045021 | 7 | 172 | 9.7 | 11.3 | 0.00 | 0.00 | 0.00 | 95 | 1014.2 |
| 20260509044810 | 7 | 175 | 9.7 | 11.3 | 0.00 | 0.00 | 0.00 | 94 | 1014.2 |
| 20260509044410 | 7 | 174 | 11.3 | 11.3 | 0.00 | 0.00 | 0.00 | 94 | 1014.2 |
| 20260509044210 | 7 | 177 | 9.7 | 12.9 | 0.00 | 0.00 | 0.00 | 94 | 1014.2 |
| 20260509044016 | 7 | 174 | 9.7 | 12.9 | 0.00 | 0.00 | 0.00 | 94 | 1014.2 |
| 20260509043810 | 7 | 175 | 9.7 | 11.3 | 0.00 | 0.00 | 0.00 | 94 | 1014.2 |
| 20260509043610 | 7 | 176 | 9.7 | 11.3 | 0.00 | 0.00 | 0.00 | 94 | 1014.2 |
| 20260509043411 | 7 | 178 | 9.7 | 11.3 | 0.00 | 0.00 | 0.00 | 94 | 1014.2 |
| 20260509043212 | 7 | 179 | 9.7 | 11.3 | 0.00 | 0.00 | 0.00 | 94 | 1014.2 |
| 20260509043023 | 7 | 177 | 9.7 | 9.7 | 0.00 | 0.00 | 0.00 | 94 | 1014.2 |
| 20260509042810 | 7 | 178 | 9.7 | 12.9 | 0.00 | 0.00 | 0.00 | 94 | 1014.2 |
| 20260509042410 | 7 | 177 | 9.7 | 11.3 | 0.00 | 0.00 | 0.00 | 94 | 1014.2 |
| 20260509042210 | 7 | 180 | 9.7 | 11.3 | 0.00 | 0.00 | 0.00 | 94 | 1014.2 |
| 20260509042017 | 7 | 179 | 9.7 | 11.3 | 0.00 | 0.00 | 0.00 | 94 | 1014.2 |
| 20260509041610 | 7 | 176 | 9.7 | 9.7 | 0.00 | 0.00 | 0.00 | 94 | 1014.2 |
| 20260509041410 | 7 | 178 | 9.7 | 9.7 | 0.00 | 0.00 | 0.00 | 94 | 1014.2 |
| 20260509041209 | 7 | 178 | 9.7 | 11.3 | 0.00 | 0.00 | 0.00 | 94 | 1014.2 |
| 20260509041017 | 7 | 177 | 9.7 | 11.3 | 0.00 | 0.00 | 0.00 | 94 | 1014.6 |
| 20260509040411 | 7 | 179 | 9.7 | 9.7 | 0.00 | 0.00 | 0.00 | 93 | 1014.6 |
| 20260509040210 | 7 | 178 | 9.7 | 11.3 | 0.00 | 0.00 | 0.00 | 93 | 1014.2 |
| 20260509040034 | 7 | 174 | 9.7 | 11.3 | 0.00 | 0.00 | 0.00 | 93 | 1014.6 |
| 20260509035810 | 7 | 180 | 9.7 | 9.7 | 0.00 | 0.00 | 0.00 | 93 | 1014.2 |
| 20260509035610 | 7 | 178 | 9.7 | 11.3 | 0.00 | 0.00 | 0.00 | 93 | 1014.6 |
| 20260509035410 | 7 | 176 | 9.7 | 11.3 | 0.00 | 0.00 | 0.00 | 93 | 1014.6 |
| 20260509034610 | 7 | 178 | 9.7 | 11.3 | 0.00 | 0.00 | 0.00 | 93 | 1014.2 |
| 20260509034410 | 7 | 175 | 9.7 | 11.3 | 0.00 | 0.00 | 0.00 | 93 | 1014.2 |
| 20260509034211 | 7 | 177 | 9.7 | 11.3 | 0.00 | 0.00 | 0.00 | 93 | 1014.2 |
| 20260509034016 | 7 | 174 | 9.7 | 11.3 | 0.00 | 0.00 | 0.00 | 93 | 1014.6 |
| 20260509033810 | 7 | 179 | 9.7 | 11.3 | 0.00 | 0.00 | 0.00 | 93 | 1014.2 |
| 20260509033611 | 7 | 177 | 11.3 | 12.9 | 0.00 | 0.00 | 0.00 | 93 | 1014.2 |
| 20260509033024 | 8 | 176 | 9.7 | 11.3 | 0.00 | 0.00 | 0.00 | 93 | 1014.2 |
| 20260509032810 | 8 | 176 | 9.7 | 11.3 | 0.00 | 0.00 | 0.00 | 93 | 1014.2 |
| 20260509032410 | 8 | 179 | 9.7 | 11.3 | 0.00 | 0.00 | 0.00 | 93 | 1014.2 |
| 20260509032211 | 8 | 177 | 8.0 | 11.3 | 0.00 | 0.00 | 0.00 | 93 | 1014.2 |
| 20260509032018 | 8 | 174 | 9.7 | 11.3 | 0.00 | 0.00 | 0.00 | 93 | 1014.6 |
| 20260509031810 | 8 | 176 | 9.7 | 11.3 | 0.00 | 0.00 | 0.00 | 93 | 1014.2 |
| 20260509031610 | 8 | 176 | 9.7 | 11.3 | 0.00 | 0.00 | 0.00 | 93 | 1014.6 |
| 20260509031210 | 8 | 179 | 9.7 | 11.3 | 0.00 | 0.00 | 0.00 | 93 | 1014.6 |
| 20260509031016 | 8 | 177 | 9.7 | 11.3 | 0.00 | 0.00 | 0.00 | 93 | 1014.2 |
| 20260509030810 | 8 | 180 | 9.7 | 11.3 | 0.00 | 0.00 | 0.00 | 93 | 1014.6 |
| 20260509030610 | 8 | 174 | 11.3 | 11.3 | 0.00 | 0.00 | 0.00 | 93 | 1014.6 |
| 20260509030410 | 8 | 177 | 8.0 | 11.3 | 0.00 | 0.00 | 0.00 | 93 | 1014.2 |
| 20260509030210 | 8 | 177 | 9.7 | 11.3 | 0.00 | 0.00 | 0.00 | 92 | 1014.6 |
| 20260509030033 | 8 | 178 | 9.7 | 9.7 | 0.00 | 0.00 | 0.00 | 93 | 1014.6 |
| 20260509025810 | 8 | 180 | 9.7 | 9.7 | 0.00 | 0.00 | 0.00 | 93 | 1014.6 |
| 20260509025610 | 8 | 177 | 9.7 | 11.3 | 0.00 | 0.00 | 0.00 | 92 | 1014.6 |
| 20260509025410 | 8 | 177 | 9.7 | 11.3 | 0.00 | 0.00 | 0.00 | 92 | 1014.6 |
| 20260509025210 | 8 | 180 | 9.7 | 9.7 | 0.00 | 0.00 | 0.00 | 92 | 1014.6 |
| 20260509025016 | 8 | 178 | 9.7 | 11.3 | 0.00 | 0.00 | 0.00 | 92 | 1014.6 |
| 20260509024810 | 8 | 172 | 9.7 | 11.3 | 0.00 | 0.00 | 0.00 | 92 | 1014.6 |
| 20260509024610 | 8 | 176 | 9.7 | 11.3 | 0.00 | 0.00 | 0.00 | 92 | 1014.2 |
| 20260509024210 | 8 | 179 | 9.7 | 11.3 | 0.00 | 0.00 | 0.00 | 92 | 1014.9 |
| 20260509024016 | 8 | 173 | 9.7 | 11.3 | 0.00 | 0.00 | 0.00 | 92 | 1014.6 |
| 20260509023810 | 8 | 178 | 9.7 | 11.3 | 0.00 | 0.00 | 0.00 | 92 | 1014.6 |
| 20260509023610 | 8 | 175 | 9.7 | 11.3 | 0.00 | 0.00 | 0.00 | 92 | 1014.6 |
| 20260509023410 | 8 | 178 | 11.3 | 11.3 | 0.00 | 0.00 | 0.00 | 92 | 1014.6 |
| 20260509023210 | 8 | 176 | 9.7 | 11.3 | 0.00 | 0.00 | 0.00 | 92 | 1014.6 |
| 20260509023024 | 8 | 177 | 9.7 | 11.3 | 0.00 | 0.00 | 0.00 | 92 | 1014.6 |
| 20260509022810 | 8 | 177 | 9.7 | 9.7 | 0.00 | 0.00 | 0.00 | 92 | 1014.6 |
| 20260509022610 | 8 | 179 | 9.7 | 11.3 | 0.00 | 0.00 | 0.00 | 92 | 1014.6 |
| 20260509022019 | 8 | 177 | 9.7 | 12.9 | 0.00 | 0.00 | 0.00 | 92 | 1014.6 |
| 20260509021610 | 8 | 179 | 9.7 | 11.3 | 0.00 | 0.00 | 0.00 | 91 | 1014.6 |
| 20260509021410 | 8 | 175 | 9.7 | 11.3 | 0.00 | 0.00 | 0.00 | 91 | 1014.6 |
| 20260509021210 | 8 | 176 | 9.7 | 12.9 | 0.00 | 0.00 | 0.00 | 91 | 1014.6 |
| 20260509021016 | 8 | 178 | 9.7 | 11.3 | 0.00 | 0.00 | 0.00 | 91 | 1014.6 |
| 20260509020810 | 8 | 179 | 9.7 | 11.3 | 0.00 | 0.00 | 0.00 | 91 | 1014.6 |
| 20260509020610 | 8 | 179 | 11.3 | 11.3 | 0.00 | 0.00 | 0.00 | 91 | 1014.6 |
| 20260509020410 | 8 | 179 | 9.7 | 11.3 | 0.00 | 0.00 | 0.00 | 91 | 1014.6 |
| 20260509020211 | 8 | 177 | 9.7 | 11.3 | 0.00 | 0.00 | 0.00 | 91 | 1014.9 |